Regional Weather Roundup
Issued by NWS

Home | Current Version | Previous Version | Graphics & Text | Print | Product List | Glossary On
Versions: 1 2 3 4 5 6 7 8 9 10 11 12 13 14 15 16 17 18 19 20 21 22 23 24 25 26 27 28 29 30 31 32 33 34 35 36 37 38 39 40 41 42 43 44 45 46 47 48 49 50
000
ASUS43 KLOT 171300
RWRIL

ILLINOIS REGIONAL WEATHER ROUNDUP
NATIONAL WEATHER SERVICE CHICAGO/ROMEOVILLE IL
800 AM CDT WED SEP 17 2014

NOTE: "FAIR" INDICATES FEW OR NO CLOUDS BELOW 12,000 FEET WITH NO
SIGNIFICANT WEATHER AND/OR OBSTRUCTIONS TO VISIBILITY.

* THESE STATIONS ARE NOT UNDER NWS QUALITY CONTROL. THEY ALSO MAY NOT
  REPORT WEATHER SUCH AS PRECIPITATION OR FOG.

ILZ001-002-007-009-015-016-024-171400-
NORTHWEST ILLINOIS

CITY           SKY/WX    TMP DP  RH WIND       PRES   REMARKS
MOLINE         MOSUNNY   49  47  93 E3        30.03S
STERLING*      SUNNY     46  43  87 CALM      30.04S
$$

ILZ003-004-008-010-011-017-018-171400-
NORTH CENTRAL ILLINOIS

CITY           SKY/WX    TMP DP  RH WIND       PRES   REMARKS
ROCKFORD       MOSUNNY   47  43  86 CALM      30.07S
$$

ILZ005-006-012>014-019>023-171400-
NORTHEAST ILLINOIS

CITY           SKY/WX    TMP DP  RH WIND       PRES   REMARKS
CHICAGO-OHARE  PTSUNNY   52  47  83 CALM      30.05S
CHICAGO-MIDWAY PTSUNNY   53  47  79 CALM      30.05F
AURORA         SUNNY     44  41  89 CALM      30.06S
WAUKEGAN       SUNNY     52  48  86 CALM      30.04S
DUPAGE AIRPORT SUNNY     48  46  93 CALM      30.05S
WHEELING       SUNNY     52  46  80 CALM      30.06S
NORTHERLY ISL    N/A     54  44  69 W7          N/A
$$

LMZ740>746-171400-
SOUTHERN LAKE MICHIGAN

STATION/POSITION SKY/WX   TEMP    WIND        PRES    VSBY  WAVE
                          AIR SEA DIR/SP/G                  HT/PER
                          (F)     (DEG/KT/KT) (MB)    (MI)  (FT/S)
SOUTHERN BUOY              61 65  220/ 12/ 16 1017.4R         1
WAUKEGAN HARBOR            54     270/  6/  7   N/A
HARRISON CRIB              55     200/ 13/ 14   N/A
BURNHAM HARBOR             54     250/  8/  8   N/A
CALUMET HARBOR             52     220/  3/  5 1016.6R
MICHIGAN CITY              51     130/  9/ 12   N/A
MICHIGAN CITY 6N           55 65  190/ 10/ 12   N/A           1/ 2
ST. JOSEPH                 57 66  150/ 10/ 14   N/A           2/ 3
$$

ILZ025>027-034>036-040-047-049-050-058-095>099-171400-
WEST-CENTRAL ILLINOIS

CITY           SKY/WX    TMP DP  RH WIND       PRES   REMARKS
QUINCY         CLOUDY    54  51  90 SE6       30.01R
$$

ILZ028>032-037-038-041>044-048-051>054-059>061-171400-
CENTRAL ILLINOIS

CITY           SKY/WX    TMP DP  RH WIND       PRES   REMARKS
DECATUR        SUNNY     50  48  93 E3        30.04F FOG
PEORIA         PTSUNNY   53  49  86 S6        30.03F
SPRINGFIELD    PTSUNNY   52  50  93 CALM      30.05R FOG
TAYLORVILLE    NOT AVBL
$$

ILZ033-039-045-046-055>057-062-063-171400-
EAST-CENTRAL ILLINOIS

CITY           SKY/WX    TMP DP  RH WIND       PRES   REMARKS
CHAMPAIGN      MOSUNNY   49  48  97 CALM      30.06S FOG
MATTOON        SUNNY     50  49  96 CALM      30.06F FOG
$$

ILZ079-100>102-171400-
SOUTHWEST ILLINOIS

CITY           SKY/WX    TMP DP  RH WIND       PRES   REMARKS
BELLEVILLE     MOSUNNY   49  49 100 CALM      30.04R FOG
CAHOKIA*       SUNNY     54  52  93 CALM      30.02F
$$

ILZ064>066-069>071-074>076-080>082-084>086-088>090-092>094-171400-
SOUTH-CENTRAL ILLINOIS

CITY           SKY/WX    TMP DP  RH WIND       PRES   REMARKS
CARBONDALE     MOSUNNY   48  47  96 SE3       30.04R FOG
MARION         SUNNY    N/A N/A N/A SE6       30.05F FOG
MT. VERNON     SUNNY     48  45  87 CALM      30.05F
$$

ILZ067-068-072-073-078-083-087-091-171400-
SOUTHEAST ILLINOIS

CITY           SKY/WX    TMP DP  RH WIND       PRES   REMARKS
LAWRENCEVILLE  MOSUNNY   49  49 100 CALM      30.08S FOG
$$

ABBREVIATIONS USED IN REMARKS
   TC - TEMPERATURE IN CELSIUS
  WCI - WIND CHILL INDEX
   HX - HEAT INDEX
  VSB - VISIBILITY
$$



USA.gov is the U.S. government's official web portal to all federal, state and local government web resources and services.